Overview Statistics Trail Chart Weather Telemetry Raw packets
 

This is the latest recevied weather packets stored in our database for station/object YF9UAG-16. If no packets are shown the sender has not sent any weather packets the latest 10 day(s).

<< 43 44 45 46 47 48 49 >>
Time Temp. Humidity Pressure Rain* Wind** Luminosity Snow
1777364563 28.33° C 72% 1006 hPa - - 0 W/m² -
1777364241 28.33° C 73% 1006 hPa - - 0 W/m² -
1777363919 28.89° C 74% 1006 hPa - - 0 W/m² -
1777363597 28.33° C 75% 1006 hPa - - 0 W/m² -
1777363275 28.89° C 74% 1006 hPa - - 0 W/m² -
1777362953 28.89° C 74% 1006 hPa - - 0 W/m² -
1777362631 28.33° C 71% 1006 hPa - - 0 W/m² -
1777362309 29.44° C 75% 1006 hPa - - 0 W/m² -
1777361987 29.44° C 74% 1006 hPa - - 0 W/m² -
1777361665 29.44° C 72% 1006 hPa - - 0 W/m² -
1777361343 29.44° C 69% 1006 hPa - - 0 W/m² -
1777361021 30° C 69% 1006 hPa - - 0 W/m² -
1777360699 30° C 69% 1006 hPa - - 0 W/m² -
1777360377 30° C 65% 1006 hPa - - 0 W/m² -
1777360055 29.44° C 62% 1006 hPa - - 0 W/m² -
1777359733 30.56° C 63% 1005 hPa - - 0 W/m² -
1777359411 30.56° C 57% 1005 hPa - - 0 W/m² -
1777359089 30.56° C 57% 1005 hPa - - 0 W/m² -
1777358767 31.11° C 54% 1005 hPa - - 0 W/m² -
1777358445 30.56° C 49% 1005 hPa - - 0 W/m² -
1777358123 32.78° C 44% 1005 hPa - - 0 W/m² -
1777357801 32.78° C 44% 1005 hPa - - 0 W/m² -
1777357479 34.44° C 40% 1005 hPa - - 0 W/m² -
1777357157 36.11° C 36% 1005 hPa - - 0 W/m² -
1777356835 38.33° C 33% 1005 hPa - - 0 W/m² -

* Rain since midnight (hover to see other rain measurements)
** Current wind speed in m/s (hover to see current wind gust speed)